Regional Weather Roundup
Issued by NWS Upton, NY

Home | Current Version | Previous Version | Text Only | Print | Product List | Glossary On
Versions: 1 2 3 4 5 6 7 8 9 10 11 12 13 14 15 16 17 18 19 20 21 22 23 24 25 26 27 28 29 30 31 32 33 34 35 36 37 38 39 40 41 42 43 44 45 46 47 48 49 50
000
ASUS41 KOKX 031605
RWROKX

REGIONAL WEATHER ROUNDUP
NATIONAL WEATHER SERVICE NEW YORK NY
1100 AM EST TUE MAR 03 2015

NOTE: "FAIR" INDICATES FEW OR NO CLOUDS BELOW 12,000 FEET WITH NO
SIGNIFICANT WEATHER AND/OR OBSTRUCTIONS TO VISIBILITY.

NYZ071-072-176-178-NJZ106-104-031700-
NEW YORK CITY METRO AREA


CITY           SKY/WX    TMP DP  RH WIND       PRES   REMARKS
CENTRAL PARK   CLOUDY    30   8  39 VRB6      30.42F WCI  24
LAGUARDIA APRT CLOUDY    29  10  45 SE9       30.41F WCI  20
KENNEDY INTL   CLOUDY    29  10  45 S7        30.43F WCI  22
NEWARK/LIBERTY CLOUDY    29  11  47 S7        30.41F WCI  22
BRNX BOT. GARD   N/A    N/A N/A N/A E6        30.42S
TETERBORO      CLOUDY    28  10  46 SW5       30.40F WCI  23
$$

NYZ177-179-078>081-031700-
LONG ISLAND NEW YORK

CITY           SKY/WX    TMP DP  RH WIND       PRES   REMARKS
FARMINGDALE    CLOUDY    28   8  43 CALM      30.42F
ISLIP          CLOUDY    29   8  41 CALM      30.40F
SHIRLEY        PTSUNNY   29   9  43 CALM      30.42F
WESTHAMPTON    PTSUNNY   29   8  41 E3        30.43F
MONTAUK POINT  NOT AVBL
$$

NYZ052-065-067-031700-
HUDSON VALLEY

CITY           SKY/WX    TMP DP  RH WIND       PRES   REMARKS
WHITE PLAINS   CLOUDY    25   8  48 VRB5      30.38F WCI  19
NEWBURGH       CLOUDY    27  12  54 CALM      30.37F
MONTGOMERY     CLOUDY    25   9  50 CALM      30.36F
POUGHKEEPSIE   CLOUDY    27   8  44 CALM      30.39F
ALBANY         CLOUDY    21   8  57 S7        30.37F WCI  12
$$

NJZ001-105-106-008-010-013-015-019>022-104-031700-
NEW JERSEY

CITY           SKY/WX    TMP DP  RH WIND       PRES   REMARKS
NEWARK/LIBERTY CLOUDY    29  11  47 S7        30.41F WCI  22
TETERBORO      CLOUDY    28  10  46 SW5       30.40F WCI  23
CALDWELL       CLOUDY    27  10  49 CALM      30.40F
MORRISTOWN     CLOUDY    27  12  54 CALM      30.42F
SOMERVILLE     CLOUDY    28  10  46 SE6       30.39F WCI  22
SUSSEX         MIX PCPN  24  10  55 VRB3      30.36F
ANDOVER          N/A     25   9  50 VRB5      30.35F WCI  19
TRENTON        CLOUDY    27  11  51 S8        30.40F WCI  19
MILLVILLE      PTSUNNY   32  12  43 VRB5      30.41F WCI  27
ATLANTIC CITY    N/A     32  15  49 SE8       30.43F WCI  25
WRIGHTSTOWN    PTSUNNY   31  13  49 S10       30.39F WCI  22
TOMS RIVER     PTSUNNY   30  16  55 E8        30.42F WCI  23
BELMAR         PTSUNNY   28  12  50 SE7       30.41F WCI  21
$$

PAZ047>061-062-071-031700-
EASTERN PENNSYLVANIA

CITY           SKY/WX    TMP DP  RH WIND       PRES   REMARKS
PHILADELPHIA   CLOUDY    30  11  45 S5        30.42F WCI  25
ALLENTOWN      CLOUDY    26   8  46 VRB5      30.38F WCI  20
SCRANTON       CLOUDY    22  10  60 W3        30.29F
$$

CTZ002-004>006-009-010-012-RIZ004-006-007-MAZ004-011-015-031700-
SOUTHERN NEW ENGLAND
 IN CT

CITY           SKY/WX    TMP DP  RH WIND       PRES   REMARKS
BRADLEY INTL   CLOUDY    26   6  42 SE3       30.38F
HARTFORD       CLOUDY    25   5  42 SE7       30.41F WCI  17
DANBURY        CLOUDY    26   6  42 CALM      30.39F
WTRBRY/OXFORD  CLOUDY    25   3  39 CALM      30.37F
BRIDGEPORT     CLOUDY    26   9  48 CALM      30.42F
MERIDEN        PTSUNNY   27   6  41 VRB3      30.40F
NEW HAVEN      CLOUDY    26   8  46 W3        30.41F
CHESTER        FAIR      28   3  34 CALM      30.39F
GROTON         PTSUNNY   25  11  55 S6        30.41F WCI  18
WILLIMANTIC    PTSUNNY   26   4  38 W3        30.39F

 IN RI

CITY           SKY/WX    TMP DP  RH WIND       PRES   REMARKS
PROVIDENCE     CLOUDY    28   4  35 CALM      30.41F
BLOCK ISLAND   PTSUNNY   27  10  50 NE3       30.39F
WESTERLY       PTSUNNY   28   5  37 S3        30.41F

 IN MA

CITY           SKY/WX    TMP DP  RH WIND       PRES   REMARKS
BOSTON         CLOUDY    27   1  32 W9        30.39S WCI  18
WORCESTER      PTSUNNY   22   2  42 VRB3      30.32F
WESTFIELD      CLOUDY    24   4  42 VRB6      30.37F WCI  17
PROVINCETOWN   SUNNY     27   7  43 NW13      30.40S WCI  16
NANTUCKET      SUNNY     27   7  42 N7        30.41S WCI  19
$$

ANZ330-335-338-340-345-350-353-355-031700-
COASTAL MARINE OBSERVATIONS


STATION/POSITION TIME  SKY/WX   TEMP    WIND        PRES    VSBY  WAVE
                                AIR SEA DIR/SP/G                  HT/PER
                 (UTC)          (F)     (DEG/KT/KT) (MB)    (MI)  (FT/S)
NY HARB ENTRANCE 1600            29 38  150/  8/ 10 1030.1          1
4S FIRE IS       NOT AVBL
20S FIRE ISLAND  1500               36              1031.3          1/ 9
23SW MTP         1600                                 N/A           2/ 4
HUDSON CANYON    NOT AVBL
EXECUTION ROCKS  NOT AVBL
WESTERN LI SOUND NOT AVBL
CENTRAL LI SOUND NOT AVBL
EASTERN LI SOUND NOT AVBL
ROBBINS REEF     1600            27     180/  8/ 10   N/A
$$


>>>>>>>>>>>>>>>>>>>>>>>>>>>> KEY <<<<<<<<<<<<<<<<<<<<<<<<<<<
>                                                          <
>     SKY/WX - SKY CONDITION/PRESENT WEATHER               <
>     TMP    - TEMPERATURE IN FAHRENHEIT                   <
>     DP     - DEWPOINT IN FAHRENHEIT                      <
>     RH     - RELATIVE HUMIDITY IN PERCENT                <
>     WIND   - DIRECTION AND SPEED IN MPH                  <
>     PRES   - MEAN SEA LEVEL PRESSURE IN INCHES OF HG     <
>     WCI    - WIND CHILL INDEX                            <
>     VSB    - VISIBILITY IN MILES                         <
>     HX     - HEAT INDEX                                  <
>     TC     - TEMPERATURE IN CELSIUS                      <
>     VRB    - VARIABLE WIND DIRECTION                     <
>                                                          <
>>>>>>>>>>>>>>>>>>>>>>>>>>>> KEY <<<<<<<<<<<<<<<<<<<<<<<<<<<




USA.gov is the U.S. government's official web portal to all federal, state and local government web resources and services.